Location: Helsinki
(60.1699°N, 24.9384°E)
Time: 12:23:41
(UTC+02:00)

Transit 2A Rocket - Pass Details

Date: 22 September 2023
Orbit: 593 x 903 km, 66.7° (Epoch: 06 December)

Event Time Altitude Azimuth Distance (km) Brightness Sun altitude
Rises 21:07:12 0° 286° (WNW) 3,166 10.0 -13.6°
Reaches altitude 10° 21:09:49 10° 294° (WNW) 2,190 8.8 -13.9°
Maximum altitude 21:14:26 38° 3° (N) 1,021 5.9 -14.4°
Enters shadow 21:18:14 13° 70° (ENE) 1,856 6.6 -14.8°
Drops below altitude 10° 21:18:43 10° 72° (ENE) 2,027 - -14.9°
Sets 21:21:03 0° 81° (E) 2,901 - -15.1°
